Regional Weather Roundup
Issued by NWS

Home | Current Version | Previous Version | Graphics & Text | Print | Product List | Glossary Off
Versions: 1 2 3 4 5 6 7 8 9 10 11 12 13 14 15 16 17 18 19 20 21 22 23 24 25 26 27 28 29 30 31 32 33 34 35 36 37 38 39 40 41 42 43 44 45 46 47 48 49 50

000
ASUS43 KTOP 280659
RWRKS

WEATHER ROUNDUP FOR KANSAS
NATIONAL WEATHER SERVICE GOODLAND KS
100 AM CST WED JAN 28 2015

NOTE:  "FAIR" INDICATES FEW OR NO CLOUDS BELOW 12,000 FEET WITH NO
SIGNIFICANT WEATHER AND/OR OBSTRUCTIONS TO VISIBILITY.

KSZ001>006-013>018-027>032-041>047-280800-
NORTHWEST KANSAS

CITY           SKY/WX    TMP DP  RH WIND       PRES   REMARKS
GOODLAND       PTCLDY    41  28  60 SW6       29.90F
HAYS           CLEAR     48  30  49 SW12      29.91F
HILL CITY      CLEAR     35  25  66 W5        29.89F
RUSSELL        CLEAR     47  33  58 SW9       29.89F
$$

KSZ061>065-074>080-084>089-280800-
SOUTHWEST KANSAS

CITY           SKY/WX    TMP DP  RH WIND       PRES   REMARKS
DODGE CITY     CLEAR     49  32  52 SW12      29.97F
ELKHART          N/A     46  33  60 SW12        N/A
GARDEN CITY    CLEAR     43  33  68 S9        29.93F
LIBERAL        CLEAR     41  30  65 SW10      29.99F
$$

KSZ066>073-081>083-090>101-280800-
SOUTHEAST KANSAS

CITY           SKY/WX    TMP DP  RH WIND       PRES   REMARKS
CHANUTE        CLEAR     42  31  64 SE10      30.01F
COFFEYVILLE    CLEAR     43  33  68 SE3       30.02F
HUTCHINSON     CLEAR     41  32  70 SE3       29.95F
MEDICINE LODGE   N/A     53  32  44 S5        29.96F
NEWTON         PTCLDY    54  34  47 SW15      29.97F
PARSONS        CLEAR     48  33  56 SE3       30.03F
WICHITA INTL   PTCLDY    46  34  62 S6        29.97F
WICHITA JABRA  PTCLDY    56  35  45 SW13      29.96F
WINFIELD       PTCLDY    49  31  49 S7        30.00S
$$

KSZ007>012-019>026-033>040-048>060-102>105-280800-
NORTHEAST KANSAS

CITY           SKY/WX    TMP DP  RH WIND       PRES   REMARKS
CONCORDIA      CLEAR     42  34  73 SE8       29.89F
EMPORIA        CLEAR     40  32  73 SE8       29.97F
LAWRENCE       CLEAR     40  30  67 SE10      30.02F WCI  33
MANHATTAN      CLEAR     42  33  70 NE3       29.94F
OLATHE IND     CLEAR     41  30  65 SE15      30.02F
OLATHE EXE     CLEAR     42  30  62 SE13      30.02F
SALINA         PTCLDY    44  34  67 S7        29.92S
TOPEKA BILLARD CLEAR     42  29  59 SE7       29.99F
TOPEKA FORBES  CLEAR     43  29  57 SE12      29.98F
$$



USA.gov is the U.S. government's official web portal to all federal, state and local government web resources and services.